Location: Casaglia
(44.0333°N, 11.5167°E)
Time: 21:00:43
(UTC+00:00)

Cosmos 1980 Rocket - Pass Details

Date: 07 June 2020
Orbit: 828 x 851 km, 71.0° (Epoch: 11 July)

Event Time Altitude Azimuth Distance (km) Brightness Sun altitude
Exits shadow 00:51:41 27° 244° (WSW) 1,548 3.2 -19.5°
Maximum altitude 00:54:21 46° 302° (WNW) 1,114 2.8 -19.3°
Drops below altitude 10° 00:59:47 10° 15° (NNE) 2,469 5.8 -18.8°
Sets 01:02:21 0° 21° (NNE) 3,411 7.0 -18.6°
